Theta_e
303 303 304 304 304 305 305 305 305 304 303 297 295 295 291 291 290 300 303 305 306 295 286 288 289 289 289 295 295 297 296 294 294 293 293 291 292 290 289 289 289 289 288 289 287 289 286 289 288 292 292 292 292 292 293 294 294 289 285 288 288 303 277 279 279 281 285 289 289 290 289 286 285 285 285 284 283 284 280 275 278 278 278 278 276 273 276
303 303 303 304 304 304 305 305 305 304 303 298 295 290 290 291 291 296 304 305 303 292 285 286 283 287 293 293 292 295 295 293 291 290 291 290 289 290 291 290 291 290 290 288 286 289 282 290 291 290 293 293 298 295 295 299 293 293 290 288 290 283 281 280 274 275 279 283 286 286 288 286 282 283 283 284 285 283 282 281 279 277 279 277 275 271 275
303 303 303 304 304 304 304 305 305 304 304 302 292 291 291 291 294 295 299 301 302 290 290 286 282 288 290 289 289 291 292 293 294 292 291 292 290 289 288 292 291 289 290 289 290 291 287 285 290 291 292 294 296 296 296 296 293 298 300 301 293 283 281 277 273 272 271 271 274 275 278 281 281 283 282 283 284 283 283 280 275 275 279 279 274 272 278
303 303 303 303 304 304 304 304 304 303 303 303 293 291 290 289 281 288 290 292 294 295 298 294 291 286 286 283 286 291 288 291 293 293 292 292 292 290 290 290 291 289 288 287 287 287 291 287 287 287 287 289 294 295 298 298 299 308 308 302 294 283 283 279 276 274 274 276 279 285 284 282 281 284 282 282 282 282 281 277 271 274 276 275 280 283 282
303 303 303 303 304 304 304 304 303 303 303 303 292 289 291 290 285 282 283 291 292 290 295 292 293 286 290 282 289 285 287 290 291 294 289 292 291 290 288 288 286 285 286 285 285 286 286 287 286 286 287 290 292 292 294 297 302 306 301 299 287 283 281 284 282 281 281 281 283 285 285 283 282 283 283 281 281 280 278 275 280 279 278 276 279 282 283
303 303 303 303 303 304 304 304 303 302 302 303 292 286 286 283 284 288 290 287 284 286 287 294 292 291 291 286 289 286 286 287 284 290 293 292 292 285 288 287 286 286 287 286 282 283 283 284 280 285 286 287 289 289 292 291 295 299 292 294 288 283 280 285 284 283 284 284 285 286 285 284 283 283 282 282 282 281 281 281 281 281 276 273 281 280 280
303 302 302 303 303 304 304 304 303 302 301 301 290 285 285 286 285 288 292 286 291 292 293 292 291 288 291 286 288 285 286 286 288 288 288 289 289 288 279 284 285 285 286 284 281 283 279 280 283 283 283 284 283 284 287 290 290 290 289 290 288 284 280 285 285 284 284 284 284 286 286 284 284 284 283 283 282 281 281 281 280 279 279 280 282 282 280
302 302 302 303 303 303 304 304 303 302 301 298 292 288 284 283 283 284 287 289 287 289 290 291 288 286 290 282 285 286 286 286 288 289 287 281 286 290 284 284 285 285 285 284 281 283 284 285 281 285 284 282 284 283 285 284 287 288 289 290 290 286 281 289 285 281 283 284 285 286 286 285 283 284 284 284 283 283 281 280 281 282 281 280 282 282 281
302 302 302 303 303 303 304 304 303 302 300 293 290 288 290 287 288 289 284 282 285 289 289 289 287 285 286 284 285 287 286 286 289 288 290 288 286 288 285 286 285 286 285 284 284 286 286 287 287 288 287 282 288 283 283 286 284 285 286 287 287 286 282 283 280 278 281 283 282 283 285 284 283 282 283 283 282 280 281 278 280 278 279 281 282 280 278
302 302 302 302 303 303 304 304 304 302 300 292 288 288 292 289 289 290 285 280 286 284 288 289 288 283 286 287 286 285 285 288 289 283 289 290 289 290 288 287 285 284 284 283 285 287 287 287 288 289 291 291 289 288 287 287 285 283 284 286 284 281 282 280 277 276 275 280 281 281 280 280 279 277 282 283 283 283 283 282 283 282 280 276 276 277 282
302 302 302 302 303 303 304 304 304 303 298 291 291 289 291 289 287 287 281 280 281 282 283 285 285 287 289 289 287 288 287 288 289 284 283 289 288 289 289 287 284 282 283 286 290 290 290 290 290 289 289 289 289 288 287 289 287 286 285 282 281 281 280 278 279 275 273 280 279 279 277 269 270 280 284 286 282 282 281 279 281 283 283 280 281 282 283
302 302 302 302 302 303 303 304 304 304 301 294 292 290 292 292 288 284 278 280 278 281 281 281 284 287 287 288 288 286 286 287 287 290 285 287 287 288 287 286 284 280 288 290 290 293 292 292 291 289 289 289 288 288 289 287 287 287 286 286 280 280 278 276 275 271 274 274 275 273 268 269 281 284 285 286 285 284 281 282 282 283 283 283 283 283 283
301 302 302 302 302 303 303 303 304 304 303 297 291 291 293 294 288 284 280 279 278 279 277 281 285 287 287 287 287 287 289 289 289 290 288 287 286 288 288 286 285 286 290 289 290 289 287 286 285 284 286 286 287 287 288 287 286 286 283 284 281 277 277 275 275 270 272 270 267 267 266 279 283 283 284 287 285 282 283 281 282 283 282 283 281 282 283
301 301 302 302 302 302 303 304 304 304 304 301 292 291 293 293 288 284 281 277 279 280 280 279 283 283 285 285 286 287 288 287 287 288 285 287 286 286 289 290 289 290 289 289 287 285 282 280 279 280 282 281 282 283 285 285 286 286 285 285 284 282 279 278 275 276 271 267 267 268 278 279 281 279 281 281 280 281 278 274 278 282 282 282 281 282 282
301 301 301 301 302 302 303 304 304 304 304 303 292 291 293 294 291 287 285 280 280 281 282 278 280 282 283 284 285 284 284 284 284 283 286 288 286 288 289 290 291 290 289 287 283 281 279 278 276 275 277 275 272 276 282 282 285 286 286 285 283 284 281 278 278 274 271 270 267 269 269 267 274 277 282 284 285 284 282 278 277 283 282 283 281 280 281
301 301 301 301 302 302 303 303 304 304 304 303 293 290 292 295 292 289 285 279 276 277 281 283 284 283 282 282 284 283 281 279 282 280 281 284 286 287 290 291 291 290 289 286 284 281 279 277 273 268 272 274 278 277 275 280 281 284 285 286 285 284 282 279 280 274 271 269 267 265 265 266 269 278 282 285 284 284 281 277 274 280 280 282 281 281 281
300 301 301 301 302 302 303 303 304 304 304 303 293 289 292 295 293 289 286 282 281 279 282 285 286 284 280 280 283 281 283 279 281 278 278 280 283 285 288 290 288 289 286 282 282 281 280 278 277 276 276 279 275 274 278 278 277 278 283 283 283 282 278 276 274 272 272 270 268 268 268 270 279 281 282 284 284 284 280 270 268 280 281 282 281 281 280
300 300 300 301 301 302 303 303 304 304 304 304 296 290 291 295 295 290 288 280 278 280 283 286 285 281 280 282 280 284 282 280 281 278 279 281 282 283 285 286 284 287 287 280 279 278 277 276 274 274 273 281 282 278 269 278 274 275 277 277 276 275 276 277 272 270 273 274 270 274 276 280 283 282 284 284 285 282 274 267 272 281 282 283 282 281 282
300 300 300 300 301 301 302 303 304 304 304 303 296 290 290 294 295 291 286 283 280 280 283 286 288 285 287 287 285 285 285 284 282 277 278 276 280 285 285 286 286 280 284 277 278 277 274 275 279 278 274 276 280 274 279 273 273 278 277 274 274 273 272 275 274 273 271 270 271 274 276 280 284 284 285 284 283 274 272 279 283 281 282 283 283 282 282
300 300 300 301 301 301 302 303 304 304 304 304 297 287 291 292 294 292 288 282 280 280 284 286 287 285 288 285 282 282 282 282 280 279 277 276 282 283 278 277 282 283 280 279 275 277 273 273 275 277 272 276 278 282 273 275 279 276 277 278 273 275 273 273 273 274 271 270 271 272 270 279 284 286 283 284 276 277 283 285 285 286 284 283 283 283 283
300 300 300 301 301 301 302 303 303 304 304 304 300 289 290 292 295 293 292 285 278 277 282 286 288 287 287 286 286 286 284 283 283 281 282 280 283 277 270 272 278 278 276 276 272 273 275 272 275 275 278 277 277 277 273 272 276 280 280 279 278 281 275 275 275 280 272 272 271 272 278 281 286 284 277 282 283 285 285 285 283 286 284 284 283 283 283
300 300 301 301 301 301 302 303 303 304 304 304 300 290 288 292 294 295 294 289 282 283 285 288 289 288 290 289 289 288 289 288 289 287 283 281 283 281 280 281 281 280 282 278 275 273 277 276 277 272 272 274 277 273 275 266 269 277 280 279 272 280 277 277 273 279 276 275 277 282 284 284 286 286 285 286 287 287 287 286 285 284 285 285 283 283 283
301 300 300 300 301 301 302 302 303 303 304 304 298 289 288 291 293 295 288 286 284 284 286 285 285 287 290 290 291 290 290 291 290 287 283 280 281 281 281 280 281 285 284 280 280 278 278 276 273 277 273 276 274 271 275 272 269 275 272 279 277 280 281 280 279 277 282 283 283 285 285 285 285 286 287 286 286 286 286 285 284 285 284 283 283 283 283
300 300 300 300 301 301 302 303 303 303 303 304 300 289 289 291 292 292 289 285 282 282 283 284 281 280 282 285 288 289 292 291 293 291 289 284 278 278 279 282 284 281 279 283 279 281 277 275 279 277 272 277 275 269 267 270 271 277 273 273 277 279 278 276 276 278 274 271 280 280 281 282 283 283 284 284 284 284 283 283 282 283 283 283 283 282 283
300 300 300 300 301 301 302 303 303 303 303 303 300 296 293 290 290 290 286 282 283 279 277 279 279 288 290 290 288 287 289 291 293 290 288 287 284 280 281 287 286 284 283 284 281 279 276 275 277 270 271 279 276 270 275 270 273 276 268 273 275 277 280 276 276 274 268 271 279 280 281 282 283 282 282 283 284 284 284 284 284 283 284 284 283 283 283
300 300 300 300 300 301 302 302 303 303 303 303 300 291 289 289 292 289 289 287 282 278 278 278 280 288 289 290 289 289 290 289 290 292 290 290 288 287 286 289 287 286 284 283 279 277 277 274 271 273 273 275 278 273 275 277 276 277 274 275 279 278 280 271 276 275 278 279 280 281 282 282 282 282 282 282 283 283 284 283 283 283 283 282 283 282 282
300 300 300 300 300 301 302 302 303 302 303 303 298 291 291 290 290 292 289 288 284 280 278 277 278 285 289 288 291 289 289 288 288 287 289 290 290 287 286 284 284 282 282 279 280 277 277 276 273 277 276 278 279 279 278 275 276 272 273 278 278 277 275 278 273 271 269 273 279 281 275 272 278 281 282 283 284 283 283 282 282 282 282 281 280 281 282
300 300 300 300 300 301 302 302 302 302 302 302 296 292 291 289 290 291 290 288 285 279 277 275 278 285 288 287 291 287 288 290 287 287 286 288 288 286 284 283 282 283 281 281 280 278 275 275 275 274 274 277 276 274 277 276 275 274 276 278 279 277 278 274 266 266 267 275 279 280 277 277 279 281 283 283 284 282 282 282 282 282 282 281 280 280 280
300 300 300 300 300 301 302 302 302 302 302 299 289 289 290 291 291 292 294 292 286 281 278 281 281 282 280 284 290 287 287 288 287 286 286 286 286 285 284 285 284 281 280 278 278 277 278 277 275 278 278 278 275 272 273 270 266 270 276 279 279 281 280 277 277 277 279 279 279 280 279 279 281 282 283 283 283 282 282 282 282 281 281 281 280 281 281
300 300 300 300 301 301 302 302 302 302 302 291 286 281 281 287 287 293 295 295 289 285 280 277 277 280 284 287 287 286 287 287 287 287 287 285 285 284 284 283 283 285 282 281 278 277 277 278 276 277 282 282 276 270 266 270 269 276 278 280 282 282 282 282 281 280 279 282 280 280 281 281 282 282 283 282 285 283 281 282 281 280 282 281 281 281 282
300 300 300 301 301 301 302 302 302 303 300 286 281 278 276 277 285 290 297 294 290 286 281 281 280 280 280 284 286 286 286 287 286 286 286 285 285 285 285 284 282 284 281 280 279 278 278 275 276 279 281 284 276 268 271 270 270 275 279 280 282 281 281 282 281 280 283 282 282 282 282 282 282 281 281 281 281 282 282 282 285 287 284 283 281 281 281
300 300 301 301 301 302 302 302 302 302 294 288 284 283 281 284 286 288 298 296 292 288 282 278 276 277 276 280 284 288 288 288 287 285 283 285 285 283 282 284 282 282 284 277 278 277 277 274 275 277 280 282 278 266 273 267 267 274 279 280 281 280 281 281 282 283 282 283 283 281 280 281 280 280 280 282 281 282 282 281 282 282 285 283 281 280 281
300 301 301 301 302 302 302 303 303 301 295 294 298 300 300 301 301 299 299 291 288 282 280 277 275 277 276 280 285 287 289 283 281 282 283 283 285 281 280 282 280 282 291 281 277 277 277 274 274 275 279 280 273 272 270 265 273 276 279 282 280 281 281 282 282 281 281 280 279 280 278 279 280 281 282 282 282 282 281 282 282 280 280 280 280 280 280
301 301 302 302 302 303 303 303 303 301 296 290 288 289 292 299 297 299 291 288 285 283 280 278 275 276 276 279 281 283 287 283 280 279 278 283 283 281 279 279 280 280 278 278 278 278 276 277 275 273 277 275 273 270 270 273 276 277 280 281 280 280 281 281 281 281 282 282 281 279 279 281 282 281 281 281 281 282 283 281 281 281 279 279 279 280 280
301 301 302 303 303 303 302 300 288 290 287 287 287 288 289 299 301 301 295 286 279 279 278 279 278 273 273 272 270 277 285 283 279 279 279 280 282 281 280 278 277 277 279 281 275 274 275 277 276 275 270 273 273 271 268 275 278 279 280 280 280 280 280 281 282 281 281 281 282 282 282 281 281 280 280 281 282 281 280 280 279 280 279 280 279 280 280
300 301 302 303 302 301 292 295 289 287 284 285 289 297 302 304 301 290 289 290 286 276 274 274 276 274 271 270 270 277 285 280 280 280 280 278 280 281 279 276 274 275 279 275 273 275 274 280 277 271 268 272 268 271 274 278 279 280 280 281 281 282 282 281 281 281 281 281 281 281 281 280 280 280 280 280 280 280 279 280 279 279 279 279 280 280 280
300 300 301 300 291 291 285 287 291 291 289 292 297 302 302 301 295 293 289 289 290 288 280 272 274 275 276 272 272 277 280 274 278 277 278 279 277 275 276 275 271 277 275 272 270 273 275 280 271 270 272 268 268 275 277 280 280 281 280 281 282 281 279 280 282 281 281 280 280 280 280 280 280 279 280 280 279 279 280 280 279 279 279 280 280 280 280
300 300 290 287 284 282 284 285 288 293 300 299 299 290 287 288 282 282 284 282 284 291 279 279 274 275 278 278 275 280 280 275 278 277 274 275 276 276 276 275 274 277 270 269 271 277 275 273 273 270 267 274 276 277 277 280 281 281 282 282 281 281 281 282 282 281 280 279 279 279 280 279 279 279 279 279 279 279 278 280 280 279 280 281 281 281 281
296 288 285 283 283 282 282 286 294 299 296 294 288 284 282 280 279 280 278 281 280 280 277 278 277 277 279 278 276 281 283 279 274 273 274 276 276 272 274 270 274 273 269 268 271 278 272 266 265 269 268 270 275 277 279 280 280 282 282 282 282 282 282 282 282 282 281 280 281 281 281 280 279 279 279 279 278 278 279 279 280 280 280 281 281 281 282
287 286 281 280 281 282 289 293 298 293 289 284 281 280 279 279 278 276 279 278 278 277 277 278 278 278 280 280 279 276 282 280 275 273 272 274 280 273 274 273 273 273 266 265 269 274 271 268 265 266 265 266 274 277 279 280 281 281 280 281 281 281 282 283 282 281 281 281 280 280 280 281 281 281 281 280 279 278 278 279 281 281 281 282 283 283 282
285 285 281 280 283 285 289 292 290 285 282 278 277 277 276 276 278 278 279 274 273 276 279 277 279 281 281 278 279 276 282 283 279 277 275 275 277 278 271 270 273 271 266 266 270 273 267 267 263 266 268 269 276 278 279 280 281 281 280 280 281 281 282 281 282 281 281 281 281 281 280 280 281 281 280 281 280 278 278 276 279 282 283 283 283 283 282
288 287 288 292 294 294 292 286 282 282 280 280 275 273 275 276 277 277 275 273 271 272 279 279 277 277 278 280 280 279 280 283 278 275 274 273 278 275 270 271 272 266 265 266 270 268 268 266 263 263 264 273 275 278 279 280 280 280 281 281 282 282 281 282 282 282 282 283 282 281 281 281 281 281 281 281 281 280 279 278 281 281 282 283 283 283 283
298 297 296 292 289 283 282 280 280 278 273 273 270 270 272 272 274 274 274 275 275 277 278 283 282 281 283 282 281 282 280 283 281 276 274 272 276 275 271 268 267 267 267 270 270 264 266 264 262 266 274 276 277 276 279 280 280 280 281 281 282 282 282 282 282 283 282 282 282 282 281 281 281 282 282 281 280 280 279 279 280 280 281 281 282 283 282
292 291 287 283 283 281 281 275 281 279 275 273 270 269 270 269 271 272 273 274 277 279 280 281 279 279 275 279 280 280 280 282 282 276 275 276 275 271 269 268 267 268 272 267 265 267 264 261 266 272 275 277 279 276 279 280 280 280 281 281 281 281 280 281 281 282 282 282 281 280 281 281 281 281 280 280 280 281 281 281 279 279 279 280 281 281 280
283 280 279 277 276 280 278 270 276 274 270 272 274 270 272 270 271 271 275 279 281 281 283 282 281 281 280 283 282 281 281 277 279 274 273 275 270 269 269 267 267 270 269 265 263 262 266 266 269 273 275 276 276 277 279 280 280 282 282 281 281 281 280 281 281 282 281 282 282 281 281 281 280 280 280 280 279 279 280 281 279 279 279 280 280 280 280
281 280 278 273 272 275 274 270 272 271 274 276 275 277 277 278 279 279 282 282 281 281 282 283 283 284 282 282 280 279 279 277 275 273 274 272 269 267 269 271 271 268 265 262 263 263 266 272 272 274 276 276 276 276 279 281 280 280 282 283 283 282 281 281 281 281 282 282 281 281 281 280 280 280 281 281 280 279 279 280 279 279 279 279 280 280 280
281 282 280 277 273 275 277 270 271 273 277 278 278 278 279 280 282 283 284 284 281 283 285 284 283 283 281 280 281 280 279 278 275 277 274 270 269 272 278 271 268 265 265 262 260 258 263 271 271 273 275 276 275 276 278 280 280 280 282 282 282 282 281 281 281 281 282 281 281 281 281 281 281 281 280 281 282 281 280 278 278 278 279 279 279 279 280
279 282 279 271 270 274 274 274 278 277 277 279 279 279 279 280 280 280 283 283 284 283 283 283 282 281 281 281 280 276 274 276 274 272 274 273 275 272 270 270 266 265 263 263 263 263 269 273 275 277 278 277 276 277 278 279 279 280 281 282 281 282 282 281 281 282 282 282 282 282 282 281 281 281 281 282 281 282 281 279 279 278 278 279 280 279 280
282 279 276 273 275 277 275 275 278 277 278 277 278 278 279 280 279 280 282 282 282 282 281 281 278 278 275 276 275 273 274 276 272 272 277 271 268 265 265 263 262 265 266 267 271 271 272 276 277 275 278 278 278 279 279 279 279 280 281 282 283 283 283 283 283 283 282 282 283 283 283 283 282 281 281 281 280 282 281 279 279 279 279 279 279 279 279
281 278 280 276 274 273 276 277 278 275 276 277 277 277 277 278 279 281 282 282 282 283 283 283 281 279 278 279 274 275 274 274 275 276 271 268 267 267 266 263 263 267 266 270 271 273 276 278 278 278 279 279 280 281 281 280 278 279 281 282 283 283 284 284 284 283 283 283 283 283 284 283 282 282 282 283 282 281 280 279 279 279 279 278 279 279 279
283 280 277 277 276 273 276 273 272 273 276 278 278 278 279 279 279 280 280 282 283 281 280 278 279 278 277 276 273 271 274 277 275 271 267 266 269 269 267 268 268 269 271 275 278 278 278 279 277 278 279 280 281 281 281 281 279 279 281 282 283 283 284 284 284 284 283 284 283 283 283 284 284 284 284 282 281 280 280 279 279 279 279 279 278 279 279
282 276 275 276 279 280 280 278 277 279 280 280 280 280 280 280 279 282 281 282 281 278 275 276 278 276 275 274 275 277 279 276 272 270 269 269 271 268 267 272 277 277 277 277 279 281 282 282 282 282 282 283 284 284 284 283 282 281 280 281 282 282 282 283 283 284 284 284 283 283 284 285 284 283 282 281 280 280 279 280 280 279 279 279 279 278 278
Wind_Speed
26 27 27 28 28 28 28 29 28 26 25 9 7 3 3 3 2 5 5 7 2 4 3 1 1 3 3 2 2 1 1 2 2 2 1 2 4 2 3 4 2 3 1 0 1 4 1 2 6 4 5 4 4 4 5 6 6 2 1 1 1 4 2 3 2 4 5 4 4 1 4 2 6 5 2 3 3 1 5 2 6 6 1 2 1 1 3
26 26 27 28 28 29 28 28 29 26 21 6 5 2 1 1 1 6 8 13 1 4 2 0 2 4 4 1 3 1 3 2 2 3 2 0 3 1 1 5 1 1 2 3 2 2 2 3 2 3 2 1 4 4 5 3 1 3 1 1 3 1 1 4 2 2 1 4 5 5 6 7 3 2 3 1 1 3 1 4 1 5 3 5 7 4 3
28 26 27 27 28 29 29 29 29 27 21 11 1 2 2 3 1 2 7 12 8 4 0 2 1 1 2 3 4 2 1 5 9 4 2 3 2 1 2 0 5 2 1 3 1 5 2 2 5 1 1 0 3 5 3 4 3 2 3 4 1 3 1 2 2 6 5 3 2 3 1 1 2 1 5 4 6 4 2 1 3 3 1 4 3 1 5
27 27 27 27 28 28 28 28 29 29 24 18 2 1 2 3 2 5 6 8 8 4 0 1 3 2 2 1 3 0 2 3 4 5 4 2 2 4 2 2 4 3 4 6 8 9 8 6 1 4 3 3 3 3 2 5 3 3 9 4 4 2 1 3 4 5 6 3 3 2 4 3 4 2 3 4 2 2 6 5 3 3 3 1 2 6 4
27 27 28 27 27 28 28 28 29 30 28 20 2 3 2 1 5 3 6 3 5 4 5 8 6 2 3 1 2 5 3 2 2 8 2 6 2 3 10 5 4 4 3 3 5 4 3 8 5 6 3 2 1 4 5 7 8 4 4 5 4 3 4 1 6 5 3 2 2 0 3 5 2 2 1 2 2 1 4 2 1 3 7 0 1 2 6
25 27 27 27 27 27 28 28 30 30 29 26 3 4 5 5 1 2 1 2 5 7 8 10 8 9 5 3 2 3 5 8 2 5 4 1 5 3 5 12 7 2 1 2 4 6 3 5 4 6 4 3 8 5 7 5 6 4 2 4 3 3 2 1 3 3 5 2 4 4 6 4 3 3 1 3 1 4 4 0 0 2 2 6 1 3 4
26 26 27 26 26 27 28 28 29 30 29 19 4 7 4 4 0 0 2 3 4 1 4 6 6 12 11 1 6 7 8 7 4 1 2 6 6 4 3 5 9 8 6 4 3 3 2 3 3 3 5 3 4 3 4 2 8 5 2 3 2 5 0 2 3 3 4 3 3 6 11 3 5 5 4 2 6 5 5 4 2 4 4 4 9 10 6
25 26 27 27 26 26 27 28 28 28 27 11 9 8 3 4 3 5 5 1 2 5 3 4 12 10 12 4 10 4 6 7 6 6 5 2 3 3 7 3 5 9 10 7 5 1 2 1 1 1 2 5 4 1 1 3 5 4 1 0 1 4 1 3 2 4 2 3 4 9 8 5 6 5 5 4 5 8 6 4 4 7 6 2 6 11 7
25 25 25 27 25 25 26 28 28 26 22 7 7 3 4 2 1 0 2 6 7 5 6 4 8 8 12 9 8 5 11 5 5 6 4 4 2 2 3 3 3 4 8 8 4 1 1 2 3 3 1 1 1 2 3 1 3 6 3 2 2 5 1 2 3 4 0 1 4 5 8 10 9 5 7 6 4 6 3 3 3 1 6 3 8 8 2
25 25 26 26 25 25 25 26 26 24 17 4 3 6 3 1 2 2 1 4 6 4 6 7 4 7 5 6 7 5 9 7 3 3 6 8 5 1 2 0 7 4 9 7 4 4 3 6 7 5 6 5 5 4 3 0 0 2 1 1 2 1 5 3 3 5 2 1 0 4 5 4 3 3 3 2 6 6 5 4 7 4 2 5 7 3 1
25 25 26 26 25 25 25 25 25 22 11 7 5 4 6 5 4 4 3 6 6 7 3 8 7 0 4 9 10 12 11 13 10 4 3 4 7 6 3 3 5 2 4 3 3 3 6 5 7 2 3 4 6 4 2 1 1 0 0 2 1 2 5 2 1 4 2 1 2 1 2 1 3 2 2 3 2 6 11 5 5 8 5 2 2 3 1
24 25 25 25 24 25 25 24 23 22 13 2 3 2 3 1 0 2 3 7 2 5 5 5 3 2 5 5 4 5 10 12 10 5 5 4 5 6 7 6 5 4 3 4 3 3 4 2 2 3 2 5 5 4 3 3 3 1 2 1 1 2 3 2 2 4 2 1 2 2 0 4 2 4 3 6 5 14 16 9 7 6 7 7 8 7 6
24 24 25 25 25 25 24 23 24 22 19 7 3 6 5 2 1 2 4 6 5 6 5 4 4 3 4 7 5 4 2 4 8 8 5 6 7 8 5 3 3 3 6 7 4 2 1 0 2 1 3 5 2 5 2 2 4 5 4 1 3 1 4 3 2 3 2 2 2 1 3 1 0 2 2 2 1 3 12 12 8 7 5 1 4 3 3
23 24 24 25 24 24 23 23 23 22 22 11 6 4 5 4 3 3 2 4 3 3 1 1 7 9 9 8 4 4 4 10 6 4 6 5 5 7 7 5 4 7 7 1 3 3 2 3 1 2 2 4 2 0 1 6 8 8 8 5 1 5 3 3 1 1 4 2 3 1 1 0 1 1 1 2 1 2 2 7 1 3 3 3 1 3 4
23 23 24 24 25 23 23 23 22 23 22 16 1 3 5 7 2 1 1 4 4 2 5 5 5 5 4 4 6 7 6 4 7 5 3 2 3 2 2 7 7 9 4 3 3 4 2 2 1 1 2 2 0 2 2 2 1 4 5 5 3 3 6 3 6 3 6 7 3 2 1 3 6 3 3 2 2 3 2 7 1 2 4 1 2 3 3
22 23 23 23 24 23 23 23 22 22 21 18 4 3 3 4 2 1 2 2 3 5 6 3 3 2 1 3 3 4 3 4 4 2 5 4 3 6 5 9 8 7 5 5 2 2 2 2 1 2 1 1 1 0 1 2 2 3 4 6 7 7 5 4 7 3 4 3 6 4 5 4 3 4 5 5 2 2 3 6 1 1 3 2 3 6 4
21 22 22 23 23 23 23 22 22 22 21 18 6 4 7 8 6 2 2 3 6 3 4 3 1 1 3 5 4 4 4 3 3 3 4 5 5 4 8 9 5 7 7 5 6 4 5 4 1 2 1 1 1 0 1 2 2 5 8 6 10 9 4 3 3 2 1 5 3 3 1 1 2 4 4 6 3 2 3 3 4 0 2 2 2 6 4
21 22 22 23 23 23 22 22 22 22 21 20 7 1 4 5 6 1 4 4 5 2 3 2 3 6 5 0 0 2 1 3 3 1 1 2 2 3 5 6 9 5 4 5 3 4 3 3 3 2 1 2 0 2 1 0 2 2 2 2 3 5 4 6 1 2 3 6 2 2 0 1 2 3 4 8 2 4 5 7 4 1 0 1 2 4 3
21 21 22 23 22 22 22 21 22 21 21 20 9 1 2 5 7 4 6 4 5 4 5 3 0 2 0 2 1 0 0 0 1 2 4 5 2 3 2 3 1 4 8 3 4 3 2 1 1 1 2 5 3 0 1 3 2 3 3 4 5 3 2 1 4 5 2 1 5 2 0 1 4 3 2 4 2 3 5 1 0 3 1 0 2 4 1
19 19 21 22 22 22 21 21 22 21 20 21 8 1 6 3 5 4 3 2 1 3 3 2 2 4 1 4 5 6 4 6 2 5 2 1 5 5 2 3 5 3 6 3 4 1 3 1 1 1 3 2 1 0 4 1 1 2 1 0 3 2 2 1 1 0 2 3 4 4 1 1 6 7 3 5 3 1 0 1 2 0 2 2 1 2 1
19 21 22 22 22 22 21 21 21 20 20 20 11 3 6 4 6 4 1 3 2 3 3 3 1 2 1 3 2 5 5 5 2 4 0 2 3 1 3 1 4 2 2 2 2 1 0 1 3 1 1 0 4 3 0 1 3 3 2 0 3 1 2 1 1 1 3 2 1 2 1 2 6 3 5 2 2 2 1 2 1 1 1 1 1 0 1
19 19 21 22 22 22 21 20 20 20 20 20 12 2 5 7 5 5 1 2 2 2 0 3 2 1 0 1 2 4 5 3 1 3 2 3 5 4 3 1 1 0 0 1 2 2 3 1 0 2 3 2 4 2 1 2 2 5 3 3 3 5 2 1 3 3 1 2 3 2 1 1 5 6 5 2 3 3 0 3 2 2 3 2 2 3 3
19 20 20 21 22 21 20 19 18 18 19 19 11 4 2 7 9 7 2 2 1 1 4 4 3 3 3 1 0 2 1 1 4 2 4 4 2 3 2 2 3 0 0 1 1 3 1 2 0 2 2 0 1 2 5 3 1 2 2 2 4 3 4 5 7 4 7 8 5 4 2 2 3 4 3 3 3 2 3 3 4 3 2 2 2 3 2
19 19 19 20 20 21 19 19 18 17 18 16 7 2 4 5 6 7 5 5 4 1 4 6 6 4 2 4 5 2 1 0 1 0 1 3 2 1 2 2 1 2 1 2 2 1 1 1 0 1 2 2 3 3 2 4 2 0 2 3 3 1 0 2 6 4 4 1 2 3 3 0 1 2 3 4 3 3 2 4 2 2 3 3 3 2 2
19 18 19 19 20 20 19 19 18 18 17 17 10 4 1 4 4 5 3 2 4 3 2 4 2 1 3 5 3 1 1 0 2 3 3 5 5 3 2 0 1 1 1 1 1 4 3 2 1 2 3 1 3 0 1 3 1 1 2 2 2 2 1 7 2 3 2 3 3 3 2 1 0 0 1 2 2 3 3 2 2 2 1 1 2 2 3
18 18 18 18 18 19 19 19 18 17 16 16 8 3 1 2 5 2 5 3 2 2 2 1 2 4 3 5 3 1 1 4 1 2 3 2 2 3 3 0 1 3 2 2 2 3 1 2 2 1 3 1 1 1 1 1 2 0 4 1 1 2 2 1 0 3 1 2 1 1 3 1 1 2 0 2 3 3 2 2 3 3 4 4 4 4 3
18 17 17 16 17 17 18 18 18 17 17 16 5 1 0 1 2 5 3 1 1 1 3 0 3 7 4 4 4 3 2 2 1 3 2 2 3 3 3 2 2 3 5 3 3 3 3 2 2 1 1 0 1 1 1 1 2 1 1 2 2 2 2 1 4 5 1 3 3 5 4 2 2 1 2 1 1 3 3 1 1 1 2 1 3 3 3
17 17 17 16 16 17 17 17 16 17 16 14 5 2 0 2 3 2 2 2 3 2 1 2 2 6 3 1 3 4 4 1 2 4 2 2 5 4 3 2 2 2 2 2 3 3 2 3 1 1 0 1 2 1 2 1 3 4 3 2 0 2 3 3 2 4 2 5 3 4 3 2 2 2 0 1 1 3 3 2 1 1 1 2 3 1 2
17 16 16 16 16 16 16 16 16 14 16 11 3 2 1 0 2 4 4 2 4 4 1 2 2 3 1 1 5 4 3 3 3 2 1 2 4 3 2 1 0 2 3 3 2 1 1 1 1 0 0 2 2 1 2 1 1 1 2 2 1 2 2 2 3 4 0 2 2 4 2 2 2 3 2 2 2 4 3 1 2 3 3 2 2 1 1
17 16 16 16 16 16 16 15 14 13 13 5 3 2 2 0 2 4 4 4 2 2 2 2 2 1 2 1 3 2 2 3 3 2 1 1 3 3 2 1 2 0 2 0 1 0 1 0 1 1 1 0 1 1 2 1 1 2 2 1 2 1 0 1 6 3 3 2 3 3 4 4 3 4 2 1 0 1 3 3 4 3 1 1 1 1 2
17 17 17 16 16 15 15 15 13 12 9 3 2 2 2 2 1 1 5 4 2 2 2 1 2 3 3 1 0 2 2 1 1 1 2 2 0 0 1 1 1 1 1 0 1 0 0 0 0 1 1 1 3 1 2 2 0 1 3 3 4 4 3 2 3 2 4 4 3 3 3 2 3 2 3 2 2 1 2 1 2 3 1 1 2 1 3
17 17 16 17 17 16 15 13 12 8 1 1 1 1 1 2 2 1 3 3 1 1 1 2 2 2 1 3 2 1 1 1 1 2 1 2 1 3 2 2 1 0 1 1 0 0 0 1 0 1 0 0 4 1 2 3 4 3 2 2 4 3 2 4 2 1 3 5 6 3 2 1 0 2 1 0 1 2 4 3 1 0 3 2 2 2 2
18 18 18 17 17 16 15 13 10 6 3 5 7 6 9 11 10 7 2 1 2 1 2 2 0 1 0 2 4 3 3 3 3 5 2 1 0 1 1 3 2 1 2 3 0 0 2 1 1 0 1 1 1 1 2 2 5 5 6 5 4 4 4 1 1 1 3 3 3 3 3 5 2 2 3 1 1 2 2 1 0 2 2 3 4 4 5
19 19 19 17 16 15 13 11 9 5 2 2 1 2 3 3 1 4 2 2 1 0 1 1 0 1 2 4 2 3 1 1 2 1 2 3 0 1 1 2 2 0 2 2 2 0 2 1 1 1 1 1 1 2 0 3 3 3 3 3 3 3 3 2 1 3 2 1 1 1 3 5 4 3 2 1 1 1 1 0 1 2 3 3 4 4 4
19 20 19 16 14 10 7 3 1 2 0 0 1 5 3 2 4 5 3 1 1 1 1 0 1 1 2 4 1 3 1 1 2 0 0 3 1 1 1 1 2 2 3 1 1 0 0 2 4 2 3 1 1 1 3 5 4 3 2 2 2 4 3 2 1 2 2 2 4 4 5 5 5 3 3 1 0 0 1 1 1 0 3 4 4 5 4
19 19 18 15 6 1 1 2 3 2 2 0 2 5 7 1 4 2 1 1 1 1 1 1 0 1 3 0 1 2 0 1 1 1 1 1 3 1 2 2 1 3 0 1 2 1 1 1 1 1 1 1 4 4 6 7 8 7 7 7 7 8 6 7 4 3 1 2 5 4 4 3 4 3 2 2 1 1 0 1 3 0 1 3 5 4 4
19 19 16 5 2 1 2 0 1 2 1 5 10 11 4 4 1 1 1 1 1 1 1 1 0 3 4 2 1 3 2 1 3 2 3 2 1 2 2 1 1 1 1 2 1 0 3 0 2 1 1 3 4 6 7 9 9 9 6 5 6 5 2 3 4 6 4 4 5 4 4 4 2 2 3 2 3 1 1 2 3 2 3 4 4 4 5
19 13 2 2 2 1 0 1 1 5 9 10 6 2 1 2 0 1 1 1 1 1 1 2 1 2 0 1 1 2 2 2 1 1 2 1 1 1 0 0 1 0 1 1 2 1 1 1 0 2 3 5 4 5 5 6 6 5 5 5 5 5 5 5 6 7 5 2 1 2 1 1 3 2 3 4 4 4 4 4 3 3 3 4 4 5 6
8 3 4 3 1 1 1 1 4 13 7 2 2 0 1 1 1 0 0 0 1 0 1 2 4 2 2 0 3 2 1 0 1 2 1 2 1 3 1 1 2 1 1 2 3 2 1 2 1 1 3 4 4 4 1 4 4 5 6 6 6 6 5 6 6 8 8 7 7 7 8 7 5 4 4 4 4 3 4 3 4 4 4 4 4 5 5
5 6 2 2 0 2 3 5 12 6 1 0 1 1 0 1 1 1 0 0 1 1 1 1 3 4 4 5 4 2 0 1 1 1 1 3 0 1 1 1 1 1 1 0 5 2 1 1 1 1 4 2 4 4 2 4 5 5 4 4 4 5 5 7 5 3 4 5 4 4 5 5 5 5 5 5 4 3 4 4 4 3 3 5 5 4 4
2 1 2 0 3 2 5 7 5 1 1 1 1 1 1 0 1 0 0 0 1 2 1 2 0 0 0 1 2 1 3 1 1 2 2 1 2 2 2 1 1 1 1 0 3 1 1 1 1 1 4 3 5 3 3 2 3 3 3 3 4 4 5 4 4 4 3 2 1 1 3 4 4 4 4 4 4 4 4 5 6 5 3 4 4 4 4
2 2 3 3 4 5 4 1 1 1 1 0 1 0 0 1 1 1 1 1 1 1 1 1 1 1 1 3 2 2 0 1 1 1 1 0 1 1 1 1 1 1 1 3 1 2 1 1 1 3 5 6 7 2 3 4 4 3 4 4 4 4 4 5 4 3 3 5 4 4 4 4 4 4 4 4 4 4 4 4 5 5 5 4 3 3 4
11 7 2 2 1 1 0 1 1 1 1 1 2 1 2 1 0 0 2 1 1 1 2 0 0 1 0 2 1 0 1 0 0 1 1 1 1 1 1 1 1 0 3 1 1 1 1 1 1 6 7 6 5 3 4 4 4 4 5 4 4 5 6 6 5 5 4 4 5 5 4 4 5 5 4 3 3 2 3 3 4 5 4 3 3 3 3
0 1 1 0 0 2 1 1 1 1 1 0 2 1 1 2 5 3 2 4 3 2 0 0 1 1 2 2 1 0 1 1 3 1 0 1 1 0 0 0 2 3 0 1 1 1 4 2 6 5 5 5 3 3 4 4 4 4 3 3 2 1 2 3 2 1 3 2 2 2 3 4 4 4 2 2 2 4 4 5 4 5 4 2 3 3 3
1 2 2 1 1 1 1 2 2 2 1 1 1 1 0 0 4 1 2 4 1 3 3 1 2 2 0 1 2 1 1 1 1 1 1 0 0 0 1 2 2 1 1 2 1 2 1 2 3 3 5 4 5 4 4 4 5 7 5 2 3 2 3 4 4 4 4 4 5 4 4 5 4 4 4 4 3 3 3 5 4 3 3 4 4 3 3
2 1 1 3 3 3 1 0 0 1 1 1 1 1 1 3 2 5 5 1 0 1 3 1 3 2 0 0 1 2 0 2 1 1 1 1 1 2 3 0 1 1 1 1 0 2 4 5 5 6 6 6 5 4 4 5 4 2 4 5 6 5 5 5 5 5 6 5 4 4 5 4 4 4 5 4 3 3 3 5 4 4 3 3 4 4 4
1 1 1 1 1 2 1 1 0 1 1 1 1 1 2 4 5 6 4 0 2 3 1 1 0 2 2 1 0 2 1 1 0 1 1 1 1 2 1 1 1 0 1 1 2 3 4 6 6 7 6 6 5 4 4 4 3 4 6 5 5 6 5 5 5 5 6 5 4 5 5 5 5 4 3 4 5 4 4 4 4 4 5 5 4 4 2
1 1 0 1 2 0 0 1 1 2 2 2 1 1 2 1 3 5 6 3 5 1 1 0 1 2 2 1 2 3 2 0 0 3 1 1 0 1 1 0 1 1 2 2 4 4 4 5 5 6 5 4 4 4 4 5 4 5 5 5 5 6 6 6 6 6 5 6 6 6 6 5 5 4 4 5 5 6 4 4 5 4 4 2 1 2 3
1 0 0 1 1 0 1 1 2 4 5 2 2 2 2 5 4 6 7 3 2 3 3 1 2 2 3 0 0 1 1 0 1 2 1 1 1 2 1 1 0 2 4 5 5 4 5 6 5 4 5 3 3 4 5 5 5 6 7 7 7 8 7 8 9 8 7 6 6 7 7 6 5 4 4 3 4 7 6 4 4 4 4 4 4 4 3
0 1 0 0 2 2 2 0 0 4 4 4 3 3 0 1 3 6 3 3 1 1 1 1 1 1 1 0 1 0 1 1 2 0 1 1 2 1 1 1 3 3 2 2 3 6 5 4 4 5 4 5 4 5 6 5 5 6 6 7 6 5 7 8 9 7 7 7 8 8 8 5 5 5 5 7 6 4 4 3 4 4 4 4 4 4 4
0 1 2 3 3 3 1 2 1 3 6 5 4 4 1 2 2 5 1 1 3 2 1 2 1 1 1 1 1 0 2 1 1 2 3 3 1 2 3 4 5 5 6 4 4 4 4 4 2 3 4 4 4 5 4 4 6 7 6 6 6 6 6 6 7 8 7 8 7 7 7 8 8 8 7 3 2 3 4 3 4 4 4 4 4 4 4
0 1 2 2 2 4 4 2 0 5 8 8 5 5 2 3 3 5 1 1 2 1 5 2 1 0 1 2 3 2 1 1 1 0 1 3 2 2 3 6 6 5 6 4 4 4 4 4 4 4 4 5 5 5 6 6 6 5 4 5 5 5 6 6 7 7 7 6 6 7 8 8 7 5 3 3 2 2 3 5 5 4 4 5 5 4 4
Wind_Direction
359 356 353 350 347 345 344 344 341 347 349 1 350 337 355 55 224 261 310 353 176 65 50 302 102 181 234 303 271 226 298 228 245 305 272 288 212 237 198 220 199 250 219 298 112 142 130 202 182 182 164 205 229 191 80 104 48 76 340 11 282 86 64 77 325 327 316 330 303 9 76 69 32 13 43 68 20 182 169 174 181 136 176 91 36 97 244
359 357 355 352 348 346 345 344 342 342 357 335 302 22 25 269 272 322 334 342 104 73 128 221 311 316 315 250 256 227 211 202 301 230 274 206 333 273 324 337 22 294 71 62 58 2 125 339 131 132 190 190 278 333 64 20 121 96 238 110 262 60 304 124 104 40 347 340 342 5 348 47 75 19 334 4 121 79 157 110 77 98 206 165 118 184 270
0 359 357 354 350 347 346 345 342 342 344 354 158 348 288 293 281 50 318 346 43 98 178 129 226 243 255 300 293 271 269 221 222 214 24 2 302 10 354 265 322 341 65 72 23 39 85 145 353 115 122 264 48 24 22 117 91 140 195 169 63 86 179 91 141 165 164 171 196 234 296 298 306 5 341 2 47 7 43 77 10 112 251 96 120 195 253
1 0 358 356 352 349 348 346 346 343 343 355 106 239 41 11 31 315 350 5 17 47 308 333 339 315 348 328 266 263 285 328 5 113 100 101 54 60 294 338 52 2 27 37 21 4 5 58 342 33 356 342 25 346 27 64 100 64 82 45 72 125 92 88 156 152 180 200 193 258 112 41 64 301 5 330 18 49 94 104 83 171 188 91 233 162 156
2 1 0 358 355 352 351 350 348 346 342 350 127 13 89 66 53 342 341 342 39 349 9 11 15 295 216 63 349 7 344 292 15 10 89 6 14 52 41 359 38 335 47 96 57 11 338 353 61 9 335 297 299 346 56 54 28 44 57 8 80 58 56 17 105 68 155 177 103 166 111 119 162 121 8 338 28 61 80 103 173 158 91 301 273 294 115
4 3 2 0 357 354 354 353 352 350 344 342 55 40 0 52 303 66 297 79 349 7 358 353 321 359 34 50 14 18 28 36 52 322 35 31 32 84 351 28 37 13 43 96 73 337 18 27 16 317 0 349 347 37 8 61 328 37 60 31 103 127 105 287 73 40 55 62 101 98 71 57 83 76 36 46 323 82 95 84 313 118 145 193 203 87 79
4 4 3 2 359 356 357 357 355 352 345 342 52 65 331 109 271 239 323 78 351 154 253 349 330 26 6 143 30 38 34 37 15 3 319 24 4 46 91 6 10 30 28 87 104 21 74 5 330 46 324 6 340 26 339 351 13 45 63 37 134 91 136 208 109 109 61 59 110 114 100 108 56 27 17 22 77 64 84 72 18 104 112 128 114 88 72
5 5 5 4 1 358 360 0 359 355 346 336 60 52 45 14 29 327 349 40 45 348 337 20 28 28 356 40 2 27 20 41 6 24 44 44 353 16 84 71 40 42 49 50 81 8 104 117 50 316 42 326 33 27 134 290 327 29 68 59 316 104 246 129 101 81 46 5 35 87 119 116 81 38 40 50 85 70 43 72 44 74 66 59 94 81 60
6 5 5 5 2 360 360 3 3 360 349 33 38 48 46 273 189 258 14 27 348 347 15 32 58 28 358 20 351 15 4 7 7 61 13 74 72 17 124 158 86 39 57 61 85 206 189 212 224 237 176 82 259 72 277 55 330 349 0 20 326 70 161 54 68 90 75 359 69 92 96 90 86 45 14 8 35 68 355 49 313 132 154 147 90 73 56
7 6 6 5 4 360 360 3 6 6 358 75 9 22 315 332 300 40 111 72 345 22 2 25 54 39 341 344 347 357 340 351 30 79 40 34 31 63 143 171 84 21 41 33 340 300 238 251 252 241 231 233 262 238 239 79 55 305 44 266 66 89 129 111 89 97 245 272 6 146 97 58 28 338 317 11 82 115 116 62 35 30 118 73 111 176 254
8 8 6 6 4 1 0 1 4 10 18 33 23 355 349 15 337 340 49 82 358 6 354 43 55 346 291 357 357 359 8 12 20 75 58 9 19 359 34 62 83 102 42 296 268 260 264 260 286 290 238 232 246 258 279 354 188 179 13 49 15 58 92 119 123 134 227 294 320 358 63 132 229 251 291 215 168 137 85 40 7 6 50 119 155 115 35
8 8 7 6 5 3 1 1 0 6 20 2 175 325 333 289 88 94 72 77 356 331 49 65 15 7 31 10 43 5 354 2 7 4 74 44 20 16 29 35 65 44 304 287 326 299 279 327 327 342 340 344 350 2 74 315 314 335 133 115 104 94 74 115 128 96 188 320 16 47 289 232 337 2 57 90 110 100 96 78 46 22 30 54 52 42 39
7 7 7 7 6 5 3 360 358 2 8 5 47 17 324 339 127 93 106 106 45 348 27 25 349 33 31 27 27 6 339 334 10 9 41 34 11 25 25 26 26 291 328 299 349 21 75 245 333 337 297 338 340 341 299 325 335 25 12 53 115 147 110 174 60 111 75 58 48 128 250 200 78 302 41 143 73 59 79 51 14 15 16 27 65 32 15
6 6 7 7 7 6 3 0 357 358 2 9 15 347 322 1 32 36 70 95 47 328 257 313 4 10 9 15 360 319 5 19 338 12 36 350 26 10 357 7 305 280 278 256 49 68 51 31 52 19 313 2 3 10 297 58 49 32 7 341 118 140 90 104 125 125 164 192 109 187 131 63 295 9 19 55 54 358 104 119 11 355 344 28 33 30 21
4 5 6 6 7 6 4 360 357 357 357 2 359 321 3 10 32 123 174 87 120 20 37 49 315 306 344 2 3 14 25 345 18 342 318 298 30 324 299 316 318 329 324 81 5 43 126 103 45 66 319 55 115 223 316 115 318 67 30 15 78 155 162 227 148 244 118 126 88 56 56 184 237 234 266 305 245 273 181 113 92 357 354 348 53 48 17
1 4 4 5 6 6 3 360 357 357 358 356 34 353 351 9 326 93 112 135 123 32 335 293 246 261 355 355 336 46 358 346 335 315 356 356 336 335 329 339 330 345 26 65 68 86 49 90 203 90 129 220 239 56 323 356 355 318 45 31 57 31 74 128 153 166 90 93 134 188 168 240 207 266 274 287 264 244 137 63 119 351 342 313 114 72 57
360 1 3 3 4 4 2 0 357 356 355 5 344 343 14 3 18 358 53 37 72 135 236 277 264 125 75 354 1 11 4 8 338 26 351 348 323 310 310 331 312 24 18 76 9 45 23 28 63 139 251 230 43 199 302 44 6 337 342 12 31 38 10 37 62 80 170 146 113 187 180 197 268 260 292 302 312 155 78 109 254 285 313 323 84 86 80
358 360 1 1 1 2 0 360 359 356 356 357 7 342 327 355 5 26 60 92 103 42 317 318 43 42 40 289 32 289 54 360 13 29 126 285 329 358 326 343 349 334 43 80 4 55 33 51 42 39 61 331 272 48 50 31 30 319 349 353 13 2 349 49 117 117 83 97 104 68 11 288 301 288 306 326 294 106 127 203 224 211 251 341 87 87 80
359 359 360 1 1 1 360 359 359 357 357 359 347 18 329 0 355 47 118 68 77 80 293 293 125 105 154 73 125 108 143 219 235 88 330 5 355 311 267 260 27 353 0 86 51 61 66 330 344 55 57 330 23 66 299 40 307 338 33 18 14 7 52 336 61 34 49 99 98 129 127 240 334 287 32 325 44 183 205 217 191 130 152 272 110 94 80
0 2 3 2 2 1 0 359 359 358 359 0 19 103 269 319 1 18 62 92 69 91 320 351 28 70 353 86 43 39 2 21 33 100 71 298 289 354 33 4 335 53 0 51 45 316 89 6 272 354 29 330 317 61 50 55 29 53 324 328 110 300 79 0 62 333 53 44 84 97 148 344 357 297 22 19 106 227 255 76 15 175 146 130 89 119 195
358 360 2 2 2 1 0 0 359 359 359 0 6 19 344 335 14 4 45 141 110 68 340 300 17 7 65 85 150 143 117 90 62 62 251 221 265 82 94 202 275 4 358 65 88 338 85 339 339 38 223 94 294 48 85 302 353 348 73 81 88 1 94 26 4 354 127 70 111 181 65 315 332 72 118 13 90 129 162 96 23 340 196 136 111 333 223
357 356 358 359 1 1 0 360 359 358 360 359 359 9 19 326 340 353 14 105 95 116 161 278 265 275 226 206 185 170 143 148 193 160 106 32 349 86 162 82 348 100 292 106 33 8 4 212 24 50 18 333 4 87 136 71 39 299 337 49 36 341 152 200 149 337 118 172 139 140 226 327 12 56 78 68 9 20 110 111 117 36 354 338 39 351 346
353 355 356 357 358 358 358 359 357 358 360 360 6 63 5 320 338 341 66 51 326 349 353 4 357 355 358 337 225 187 221 148 114 83 126 108 23 16 57 50 357 285 24 104 137 143 193 104 173 158 68 39 128 25 16 111 161 352 54 324 136 16 93 99 86 72 86 56 73 130 126 87 52 42 59 74 53 26 89 91 83 32 0 27 40 342 351
353 353 353 354 355 354 354 354 355 356 358 0 12 24 330 324 315 352 15 69 92 40 347 11 57 349 337 322 311 350 49 357 282 50 165 125 112 307 329 270 192 24 4 278 178 119 207 117 241 130 107 243 86 50 93 31 21 222 54 350 345 294 59 57 117 181 75 109 97 102 141 42 47 57 29 33 54 40 68 78 83 72 44 35 22 0 340
352 352 351 351 351 351 350 350 352 353 354 358 355 319 273 345 356 17 70 46 358 74 127 315 347 237 291 275 251 334 285 193 53 89 60 74 122 137 148 77 165 98 316 297 75 50 40 78 3 44 96 274 105 303 260 108 318 89 75 282 27 352 71 68 76 64 112 198 182 213 212 162 106 164 122 92 42 41 36 84 118 123 117 76 5 341 14
349 350 349 347 347 347 346 346 347 349 349 354 7 16 42 340 318 41 86 74 101 106 88 316 280 309 327 14 16 288 336 41 359 41 61 111 142 145 162 171 29 32 95 75 71 94 97 44 69 106 99 306 93 127 123 168 169 150 122 211 247 256 10 124 103 95 345 348 322 49 150 350 346 31 347 221 192 145 74 63 64 40 36 10 11 39 30
345 346 345 345 343 342 342 341 343 344 345 347 2 345 192 287 342 38 56 347 74 337 34 312 276 303 359 341 271 340 20 71 19 60 28 24 54 61 66 67 72 4 47 9 28 115 58 87 90 75 156 236 86 114 123 28 74 80 36 284 339 50 39 238 58 61 343 189 190 131 139 253 247 232 222 252 251 138 127 86 46 32 46 25 65 21 8
340 341 341 341 340 337 336 337 338 342 342 346 352 338 179 76 354 355 82 100 104 170 183 253 319 287 313 243 298 347 323 70 101 82 57 11 33 51 72 84 90 30 2 51 354 13 31 48 345 238 211 302 54 342 5 107 65 37 11 307 195 114 188 134 139 154 227 243 227 183 157 150 197 191 250 230 170 140 122 138 136 58 111 142 109 60 346
336 337 336 335 334 331 330 331 334 340 343 345 357 27 4 321 354 9 42 39 98 93 100 247 293 360 48 255 332 345 356 46 47 71 66 36 61 54 87 56 60 142 92 82 113 91 89 256 192 98 348 212 95 284 51 28 67 145 231 278 314 270 153 143 173 137 302 207 215 170 131 165 138 137 137 126 169 132 125 127 123 134 141 151 146 162 45
335 333 330 328 325 324 324 325 331 339 346 0 45 49 34 325 336 31 12 45 78 118 77 46 50 244 297 333 296 319 332 4 33 45 28 337 358 16 26 80 58 88 96 154 150 15 236 177 299 290 292 74 100 177 72 178 108 240 270 280 264 313 34 151 148 132 195 197 175 172 149 141 129 150 148 123 44 152 119 110 129 127 135 151 92 20 8
333 331 326 321 319 318 317 318 325 336 352 36 73 54 40 36 312 298 16 21 44 106 122 114 227 282 342 268 200 312 306 297 340 284 296 296 1 250 286 85 65 100 49 357 45 195 123 10 82 299 337 87 116 99 163 121 136 290 245 215 210 181 180 172 230 206 142 126 113 100 87 106 142 111 41 37 19 80 105 77 84 117 131 71 19 35 355
330 325 320 316 312 310 310 311 317 332 14 83 89 174 180 192 223 243 6 7 35 47 58 32 345 4 273 315 288 268 337 5 46 10 343 19 344 352 20 63 235 37 136 135 217 61 257 221 107 284 126 333 71 97 74 86 149 230 224 219 228 214 168 133 128 102 98 142 119 71 45 21 348 184 195 195 42 90 118 136 175 233 43 32 4 3 330
325 321 315 310 306 304 302 305 307 301 244 235 245 273 270 268 269 284 305 358 50 98 122 87 161 225 13 253 308 330 3 21 10 15 328 312 219 359 314 354 19 45 351 84 335 236 215 138 70 51 266 39 91 101 105 165 210 230 198 189 197 183 174 187 127 116 159 193 145 162 217 192 188 173 160 165 87 114 120 83 357 32 28 2 338 331 326
323 317 312 306 298 295 299 301 303 292 4 25 23 348 301 283 36 99 101 78 111 85 77 107 16 356 264 310 70 282 30 55 283 38 356 306 196 77 271 27 354 79 314 80 257 66 326 72 186 228 325 25 69 82 281 261 241 243 207 195 173 142 131 109 105 118 159 175 187 163 160 154 140 143 120 119 82 21 75 83 47 11 326 333 314 297 288
321 317 309 306 304 299 307 316 37 56 121 280 244 251 259 286 134 135 132 118 72 344 23 331 108 58 347 359 34 273 280 80 342 248 117 280 31 182 237 61 323 52 289 105 38 117 198 242 172 96 239 326 59 186 239 234 248 224 206 183 169 124 90 104 267 227 194 129 104 110 119 127 121 138 165 154 222 337 30 330 2 45 323 301 297 299 308
320 316 313 316 330 69 76 48 55 54 27 317 268 286 304 256 115 77 100 101 124 151 102 249 69 200 147 164 320 276 352 34 279 322 238 273 347 11 95 114 11 263 198 77 212 354 225 237 95 285 285 89 224 194 223 198 196 199 195 189 188 170 183 185 174 181 181 118 127 134 137 138 129 174 161 182 243 297 50 333 319 10 264 285 289 297 308
321 316 315 330 39 40 29 179 295 97 217 243 268 287 275 122 44 70 15 32 2 101 148 166 58 238 165 221 246 280 55 337 339 5 334 16 252 284 45 45 221 280 36 0 2 231 259 69 98 120 193 186 246 230 214 186 183 186 202 206 194 209 179 166 156 137 117 113 131 158 165 157 164 161 151 219 240 261 331 293 249 258 271 278 288 295 280
320 322 8 29 37 53 1 345 18 303 312 298 318 43 3 12 94 343 2 39 275 43 338 73 216 256 317 91 240 251 68 284 56 43 309 243 28 312 24 103 238 250 306 255 252 191 80 43 206 172 261 251 250 258 240 215 200 180 177 188 192 192 176 155 144 128 126 116 184 199 168 181 184 201 178 240 246 249 240 236 250 228 232 253 261 261 279
340 6 38 22 89 211 191 247 329 334 318 280 49 75 323 19 62 10 272 245 24 309 282 132 241 198 136 98 280 288 147 112 23 30 73 276 103 307 19 57 299 65 310 17 302 34 313 331 346 18 278 302 331 284 220 166 174 189 195 192 176 183 169 169 171 156 170 188 194 193 175 182 192 219 218 243 265 253 251 259 262 250 241 250 255 261 262
23 23 20 356 48 253 276 310 342 330 31 45 323 102 214 327 95 278 290 57 323 265 101 246 214 174 186 184 195 279 333 73 314 285 212 306 16 144 260 98 264 85 272 110 251 36 110 272 286 50 295 282 257 258 181 177 178 210 199 200 178 174 173 171 200 215 190 207 191 181 178 177 175 178 198 219 230 259 284 273 255 254 250 249 249 252 255
13 359 3 329 263 305 308 315 328 47 63 40 10 358 64 350 281 190 79 13 189 230 185 177 1 169 3 90 115 201 284 91 168 132 116 239 251 83 53 234 247 76 294 272 276 65 72 68 348 203 241 235 238 249 171 157 199 206 196 196 178 172 174 184 198 194 174 166 184 157 184 180 182 201 205 203 202 220 239 261 286 286 259 248 248 238 241
228 209 221 255 282 284 310 345 68 35 8 105 114 286 250 224 277 4 131 125 257 244 303 143 274 205 236 187 202 144 9 185 120 104 95 327 293 131 225 303 6 101 252 236 125 56 75 216 305 293 261 257 258 255 163 188 214 184 198 192 183 171 170 171 189 225 203 179 188 189 205 196 195 206 214 211 216 227 243 273 282 278 258 246 242 262 275
293 286 204 267 331 322 211 29 308 98 102 3 38 24 344 40 285 165 294 281 285 98 267 117 231 185 314 61 55 129 190 216 178 309 75 228 282 57 89 13 53 348 238 301 65 55 29 231 238 249 258 278 281 257 230 196 183 194 198 190 188 183 172 175 183 197 212 192 186 192 193 196 212 222 221 217 226 270 267 250 248 262 266 243 231 248 264
167 102 80 357 16 288 75 21 290 35 3 74 90 68 335 7 316 3 354 287 302 313 256 143 261 93 230 303 160 310 358 355 55 76 3 297 87 282 60 212 221 240 72 40 49 193 228 220 207 230 266 293 276 213 195 196 186 182 203 226 236 212 180 162 159 164 226 230 239 223 182 197 222 249 249 232 204 235 270 290 274 250 246 208 229 251 258
60 358 19 14 22 272 62 315 319 108 105 299 112 143 149 206 259 229 244 250 142 277 324 42 108 84 195 273 38 345 120 207 318 98 249 96 6 342 110 254 250 29 75 262 327 325 350 284 277 286 279 280 260 229 209 193 175 179 187 183 196 205 187 164 189 191 207 205 216 196 198 213 224 247 252 250 239 215 235 259 254 229 213 198 222 248 275
56 105 24 56 350 321 101 179 333 28 310 136 120 201 240 258 234 265 258 210 324 332 28 10 29 63 273 230 146 239 333 85 51 245 196 70 105 270 242 206 89 54 0 43 335 234 225 241 261 268 261 261 260 246 218 205 195 164 141 180 207 200 211 188 186 194 204 207 217 195 211 206 215 239 259 260 258 249 232 244 230 200 183 192 227 229 246
19 6 81 104 100 274 95 117 272 186 170 219 221 196 212 247 258 249 258 232 248 212 157 151 121 191 211 285 296 336 24 61 197 265 77 50 195 254 35 89 281 178 164 279 252 254 269 258 244 247 261 269 269 238 220 210 184 184 201 191 180 201 204 201 195 201 216 206 211 222 223 218 228 233 257 299 285 266 255 247 238 206 169 194 210 212 207
69 253 79 96 248 225 66 265 241 298 270 201 246 250 262 265 3 330 311 296 281 314 164 43 301 338 316 302 95 203 237 188 52 295 178 208 24 39 7 27 266 250 175 170 234 221 234 252 254 266 268 257 236 208 205 209 211 204 199 198 199 200 202 202 208 221 211 207 216 224 229 226 222 226 229 240 263 284 274 246 224 210 205 177 142 172 172
165 99 117 202 209 214 241 246 25 328 281 283 278 300 349 10 320 284 287 303 272 255 196 144 212 106 270 250 120 30 291 318 120 246 63 30 107 219 169 227 186 296 263 184 222 219 225 245 260 267 280 267 205 194 218 213 202 197 201 203 207 207 203 204 211 214 208 210 216 221 232 228 218 222 235 242 264 274 260 227 205 200 186 172 177 168 160
70 340 19 78 5 315 237 113 29 275 301 319 341 316 244 282 288 286 272 319 292 37 42 45 91 122 248 165 288 327 256 250 187 297 77 220 207 214 84 285 228 194 253 235 225 244 257 272 285 295 279 277 252 195 209 221 204 214 223 220 217 204 205 208 217 214 207 208 213 219 226 225 222 219 220 232 234 245 251 212 205 202 199 196 174 169 169
302 139 230 181 169 219 130 306 261 282 301 288 287 280 277 279 233 274 268 320 335 27 39 223 235 125 291 23 69 342 252 168 78 205 164 205 208 136 186 218 240 211 230 233 233 255 268 273 252 268 288 272 263 272 257 227 207 215 219 224 225 219 219 214 214 212 213 215 216 219 225 229 227 219 224 210 215 241 248 251 230 211 193 190 191 172 170
148 265 263 273 227 220 220 236 256 230 245 258 263 245 175 252 242 255 262 61 24 338 265 240 119 100 86 210 225 208 309 45 224 59 354 276 170 163 217 206 234 222 220 241 265 246 233 245 233 227 230 251 262 246 235 234 232 235 225 225 221 224 227 223 218 215 214 216 212 214 224 230 231 224 187 173 175 162 208 242 240 214 201 192 201 193 177